KL1V-13 Weather Reports


Display with metric or nautical units.
time (UTC)temp
F
wind
direction
speed
MPH
gust
MPH
rain 1hr
in
rain 24hr
in
rain mn
in
humidity
%
barometer
mb
20260510132734 38 0.0 1.0 0.02 0.38 0.10 93 995.8
20260510131714 38 0.0 0.0 0.02 0.38 0.10 93 995.6
20260510130714 38 337 1.0 2.0 0.02 0.38 0.10 93 995.9
20260510125735 38 0.0 0.0 0.02 0.38 0.10 93 995.9
20260510124716 39 0.0 0.0 0.03 0.39 0.10 93 995.9
20260510123714 39 0.0 0.0 0.03 0.39 0.09 93 995.6
20260510122714 39 0.0 0.0 0.02 0.38 0.08 93 995.9
20260510121714 38 315 2.0 3.0 0.02 0.38 0.08 93 995.9
20260510120714 38 0.0 0.0 0.02 0.38 0.08 93 995.9
20260510115714 38 0.0 0.0 0.03 0.38 0.08 93 995.9
20260510114714 39 0.0 0.0 0.03 0.38 0.07 93 995.9
20260510113714 39 0.0 0.0 0.02 0.38 0.06 93 995.6
20260510112734 39 0.0 0.0 0.03 0.38 0.06 93 995.9
20260510111735 39 0.0 0.0 0.04 0.39 0.06 93 995.9
20260510110714 39 0.0 0.0 0.04 0.40 0.06 93 995.6
20260510105714 39 0.0 0.0 0.03 0.39 0.05 92 995.8
20260510104714 39 0.0 0.0 0.02 0.38 0.04 92 995.6
20260510103714 39 0.0 0.0 0.02 0.38 0.04 92 995.6
20260510102714 39 0.0 0.0 0.01 0.38 0.03 92 995.6
20260510101714 39 0.0 0.0 0.00 0.38 0.02 92 995.6
20260510100714 39 0.0 0.0 0.00 0.38 0.02 92 995.5
20260510095714 38 0.0 0.0 0.00 0.38 0.02 92 995.3
20260510094715 39 0.0 0.0 0.00 0.39 0.02 92 995.3
20260510093754 39 0.0 0.0 0.01 0.40 0.02 92 995.5
20260510092735 39 0.0 0.0 0.01 0.40 0.02 92 995.6
20260510091714 39 315 2.0 4.0 0.02 0.40 0.02 92 995.3
20260510090714 39 0.0 0.0 0.02 0.40 0.02 92 995.3
20260510085715 39 0.0 0.0 0.02 0.41 0.02 92 995.3
20260510084715 39 0.0 0.0 0.02 0.41 0.02 92 995.4
20260510083714 39 0.0 0.0 0.01 0.41 0.01 92 995.3
20260510082715 39 0.0 0.0 0.01 0.41 0.01 92 995.3
20260510081714 39 315 1.0 2.0 0.00 0.40 0.00 92 995.3
20260510080715 40 0.0 0.0 0.01 0.40 0.00 92 995.3
20260510075714 40 0.0 0.0 0.02 0.40 0.40 92 995.3
20260510074714 40 0.0 0.0 0.02 0.40 0.40 91 995.3
20260510073714 40 317 2.0 3.0 0.02 0.41 0.40 91 995.3
20260510072715 40 0.0 0.0 0.02 0.41 0.40 91 995.4
20260510071714 40 0.0 0.0 0.03 0.41 0.40 91 995.6
20260510070735 40 0.0 0.0 0.03 0.41 0.39 91 995.6
20260510065714 40 0.0 0.0 0.02 0.40 0.38 91 995.4
20260510064715 41 0.0 0.0 0.02 0.40 0.38 91 995.3
20260510063714 41 0.0 0.0 0.03 0.40 0.38 91 995.3
20260510062714 41 0.0 0.0 0.04 0.40 0.38 91 995.3
20260510061715 41 0.0 0.0 0.03 0.39 0.37 90 995.3
20260510060714 41 315 1.0 2.0 0.02 0.38 0.36 90 995.3
20260510055736 41 0.0 0.0 0.04 0.38 0.36 90 995.3
20260510054715 42 0.0 0.0 0.04 0.38 0.36 89 995.3
20260510053714 42 0.0 0.0 0.03 0.38 0.35 89 995.3
20260510052714 42 0.0 2.0 0.03 0.37 0.34 89 994.9
20260510051735 42 0.0 0.0 0.04 0.37 0.34 89 995.3
20260510050735 42 345 3.0 5.0 0.04 0.37 0.34 89 995.3
20260510045735 43 315 3.0 4.0 0.02 0.35 0.32 89 995.1
20260510044735 42 0.0 0.0 0.02 0.36 0.32 89 995.3
20260510043715 43 315 0.0 2.0 0.02 0.36 0.32 89 995.1
20260510042736 43 0.0 0.0 0.02 0.35 0.31 89 995.1
20260510041714 43 0.0 0.0 0.02 0.34 0.30 88 995.1
20260510040735 43 0.0 0.0 0.02 0.34 0.30 88 994.9
20260510035714 44 315 2.0 2.0 0.02 0.34 0.30 89 995.3
20260510034714 44 0.0 0.0 0.02 0.34 0.30 89 995.3
20260510033715 45 82 1.0 2.0 0.02 0.34 0.30 89 995.3
20260510032715 45 0.0 0.0 0.02 0.33 0.29 89 994.9
20260510031715 44 0.0 0.0 0.01 0.32 0.28 89 994.9
20260510030714 45 112 1.0 1.0 0.02 0.32 0.28 89 994.9
20260510025714 45 0.0 0.0 0.02 0.32 0.28 89 994.9
20260510024715 44 0.0 0.0 0.02 0.32 0.28 88 994.9
20260510023714 44 0.0 0.0 0.02 0.32 0.28 87 994.9
20260510022755 45 337 4.0 5.0 0.02 0.31 0.27 88 994.9
20260510021714 45 360 0.0 1.0 0.02 0.31 0.27 87 994.9
20260510020715 45 0.0 0.0 0.02 0.30 0.26 88 994.6
20260510015714 45 22 1.0 2.0 0.02 0.30 0.26 88 994.6
20260510014714 45 0.0 0.0 0.02 0.30 0.26 88 994.6
20260510013715 45 0.0 0.0 0.02 0.30 0.26 88 994.6
20260510012714 45 5 3.0 4.0 0.01 0.29 0.25 88 994.9
20260510011714 45 315 2.0 4.0 0.01 0.29 0.25 87 994.6
20260510010714 45 315 2.0 2.0 0.00 0.28 0.24 87 994.6
20260510005714 46 315 1.0 4.0 0.00 0.28 0.24 87 994.6
20260510004714 46 107 2.0 4.0 0.00 0.28 0.24 88 994.6
20260510003734 46 0.0 0.0 0.00 0.28 0.24 87 994.6
20260510002715 46 53 1.0 3.0 0.00 0.28 0.24 87 994.7
20260510001755 46 112 0.0 2.0 0.00 0.28 0.24 87 994.9
20260510000714 46 180 0.0 2.0 0.00 0.28 0.24 87 994.9
20260509235735 46 112 0.0 1.0 0.00 0.28 0.24 87 994.9
20260509234714 46 112 0.0 2.0 0.00 0.28 0.24 86 994.7
20260509233714 47 129 2.0 4.0 0.00 0.28 0.24 86 994.6
20260509232714 47 0.0 2.0 0.00 0.28 0.24 85 994.6
20260509231714 47 211 2.0 4.0 0.00 0.28 0.24 85 994.6
20260509230715 47 0.0 0.0 0.00 0.28 0.24 86 994.6
20260509225714 47 112 1.0 3.0 0.00 0.28 0.24 86 994.6
20260509224735 46 292 0.0 1.0 0.00 0.28 0.24 86 994.8
20260509223714 45 67 0.0 1.0 0.00 0.28 0.24 86 994.7
20260509222714 46 312 5.0 9.0 0.00 0.28 0.24 85 994.9
20260509221714 46 90 0.0 3.0 0.00 0.28 0.24 85 994.9
20260509220714 46 0.0 0.0 0.00 0.28 0.24 86 994.9
20260509215714 47 222 2.0 4.0 0.00 0.28 0.24 86 994.7
20260509214714 46 0.0 0.0 0.00 0.28 0.24 87 994.9
20260509213715 46 90 0.0 1.0 0.00 0.28 0.24 88 994.8
20260509212714 46 124 2.0 4.0 0.00 0.28 0.24 88 994.6
20260509211714 45 0.0 1.0 0.00 0.28 0.24 89 994.6
20260509210714 45 150 1.0 4.0 0.00 0.28 0.24 88 994.3
20260509205714 45 0.0 0.0 0.00 0.28 0.24 88 994.2
20260509204715 45 112 2.0 4.0 0.00 0.28 0.24 89 994.6
20260509203714 45 0.0 2.0 0.00 0.28 0.24 89 994.2
20260509202735 44 111 3.0 4.0 0.02 0.28 0.24 89 994.2
20260509201714 44 0.0 0.0 0.02 0.28 0.24 89 994.2
20260509200714 44 112 1.0 2.0 0.02 0.28 0.24 89 994.2
20260509195714 44 0.0 0.0 0.02 0.28 0.24 89 994.2
20260509194714 43 112 1.0 2.0 0.02 0.28 0.24 89 994.2
20260509193715 42 112 1.0 2.0 0.02 0.28 0.24 89 994.2
20260509192714 42 0.0 0.0 0.00 0.26 0.22 89 994.2
20260509191735 42 0.0 0.0 0.00 0.26 0.22 89 994.2
20260509190715 42 86 1.0 3.0 0.01 0.26 0.22 90 993.9
20260509185714 42 0.0 1.0 0.02 0.26 0.22 90 993.9
20260509184714 41 112 1.0 2.0 0.02 0.26 0.22 90 993.9
20260509183714 40 0.0 0.0 0.02 0.26 0.22 90 993.9
20260509182714 40 0.0 0.0 0.02 0.26 0.22 91 994.0
20260509181714 40 90 0.0 3.0 0.02 0.26 0.22 91 993.9
20260509180714 39 0.0 0.0 0.01 0.25 0.21 91 993.9
20260509175714 39 0.0 0.0 0.00 0.24 0.20 91 993.9
20260509174714 39 0.0 0.0 0.01 0.24 0.20 91 993.9
20260509173714 38 360 1.0 2.0 0.01 0.24 0.20 91 993.9
20260509172714 38 0.0 0.0 0.02 0.24 0.20 92 993.9
20260509171714 37 0.0 0.0 0.02 0.24 0.20 92 993.9
20260509170714 37 45 0.0 2.0 0.02 0.24 0.20 92 993.9
20260509165714 37 327 1.0 2.0 0.02 0.24 0.20 92 993.9
20260509164714 36 360 0.0 2.0 0.01 0.23 0.19 92 994.2
20260509163714 36 0.0 0.0 0.02 0.23 0.19 92 994.2
20260509162715 36 315 2.0 3.0 0.02 0.22 0.18 92 994.2
20260509161714 35 315 0.0 1.0 0.02 0.22 0.18 92 994.2
20260509160736 34 0.0 0.0 0.02 0.22 0.18 92 994.2
20260509155735 34 0.0 0.0 0.03 0.22 0.18 92 994.2
20260509154714 33 0.0 0.0 0.04 0.22 0.18 92 994.2
20260509153715 33 0.0 0.0 0.03 0.21 0.17 92 994.2
20260509152714 33 0.0 0.0 0.02 0.20 0.16 92 994.3
20260509151735 33 0.0 0.0 0.02 0.20 0.16 92 994.2
20260509150735 33 0.0 0.0 0.03 0.20 0.16 92 994.2
20260509145714 33 0.0 0.0 0.03 0.19 0.15 92 994.2
20260509144714 33 0.0 0.0 0.02 0.18 0.14 92 994.6
20260509143714 32 0.0 0.0 0.02 0.18 0.14 92 994.6
20260509142715 32 0.0 0.0 0.02 0.18 0.14 92 994.6
20260509141716 33 0.0 0.0 0.02 0.18 0.14 92 994.6
20260509140714 33 0.0 0.0 0.01 0.17 0.13 92 994.6
20260509135714 33 0.0 0.0 0.00 0.16 0.12 91 994.9
20260509134714 33 0.0 0.0 0.01 0.16 0.12 91 994.9
20260509133714 33 0.0 0.0 0.02 0.16 0.12 91 994.9